DELTA 1 DEB, 7202

Orbit data source: Space-Track

DELTA 1 DEB, 7202 is space debris in SSO originally from a launch on Tue, 06 Nov 1973 UTC launched from the Air Force Western Test Range (AFWTR). Debris objects in space refer to the collection of defunct objects orbiting the Earth. Examples of debris include non-operational satellites, rocket bodies, and fragments generated from explosions, collisions, or faulty payload assembly.

Loading next visibility...
Identifier
7202, 1973-086FL
Orbit
SSO
Country
Flag of USUS
Related business
Manufacturer
Unknown
Mission
Spacecraft
Bus & Motor
Unknown
Mass
Unknown
Launch date (UTC)
1973-11-06 (53 years ago)
Launch vehicle
Unknown
Launch site
Air Force Western Test Range (AFWTR)
Object type
Payload
Rocket body
Debris
Shape & HBR
Unknown shape, 0.1 m
Radar Cross Section
Medium (>0.1 m² and <1 m²)

Expand to show TLE details & history
Last TLE update: 2 days ago

TLE from 2 days ago
0 DELTA 1 DEB
1 07202U 73086FL  26207.92395601  .00000464  00000-0  96134-3 0  9997
2 07202 102.0374 192.1488 0291936 353.4818  32.7413 13.24812328526800
Epoch: 2026-07-26T22:10Z
TLE epoch observation values (Epoch: 2026-07-26T22:10:29.799Z)
Latitude
27.4616°
Longitude
-91.41972°
Altitude
986.194 km
Speed
7.45 km/s
True Right ascension
12h 23m 16s
True Declination
27° 19' 32"
Sunlit
Object was in daylight at epoch
Visualization orbit readout
Latitude
Unknown
Longitude
Unknown
Altitude
Unknown
Speed
Unknown
Apparent Right ascension
Unknown
Apparent Declination
Unknown
Sunlit
N/A
Visualization observer readout
Local Sidereal Time
07:33:34
Azimuth
Unknown
Elevation
Unknown
Doppler factor
Unknown
Orbital elements
Apogee altitude
1,384.036 km
Perigee altitude
943.68 km
Semi-major axis
7,541.995 km
Eccentricity
0.02919
Inclination
102.0374°
RAAN
192.1488°
Arg. of periapsis
353.4818°
True anomaly
34.6075°
Mean anomaly
32.7413°
Eccentric anomaly
33.66861°
Mean motion
3.3137 °/min
Orbital period
108.64 mins
BSTAR
0.00096134
Loading maneuver chart data...
Computing Atmospheric mass density...
Loading historical data...
Loading historical data...
Loading historical data...
Loading historical data...
Loading historical data...
Loading historical data...
Loading historical data...

Documentation

Showing up to 5 results
|